Jackson Hawkins Field, MS

1:37 AM CDT on July 24, 2017 (GMT -0500)
Hawkins

Weather History for KHKS - June, 2013

Change the Weather History Date:

Tuesday, June 18, 2013

  Actual Average (KJAN) Record (KJAN)
Temperature  
Mean Temperature 78 °F -  
Max Temperature 86 °F 91 °F 103 °F (1902)
Min Temperature 71 °F 69 °F 56 °F (1899)
Cooling Degree Days 14    
Growing Degree Days 28 (Base 50)    
Moisture  
Dew Point 71 °F    
Average Humidity 78    
Maximum Humidity 94    
Minimum Humidity 58    
Precipitation  
Precipitation 0.40 in - - ()
Sea Level Pressure  
Sea Level Pressure 29.94 in    
Wind  
Wind Speed 8 mph (WSW)    
Max Wind Speed 20 mph    
Max Gust Speed 28 mph    
Visibility 9 miles    
Events Rain , Thunderstorm    
Averages and records for this station are not official NWS values.
T = Trace of Precipitation, MM = Missing Value Source: NWS Daily Summary

Daily Weather History Graph

Daily Weather History Graph

Search for Another Location

Airport or City:

Trip Planner

Search our weather history database for the weather conditions in past years. The results will help you decide how hot, cold, wet, or windy it might be!

Date:

Astronomy

Jun. 18, 2013 Rise Set
Actual Time 5:53 AM CDT 8:10 PM CDT
Civil Twilight 5:25 AM CDT 8:38 PM CDT
Nautical Twilight 4:50 AM CDT 9:13 PM CDT
Astronomical Twilight 4:12 AM CDT 9:51 PM CDT
Moon 3:07 PM CDT (6/18) 1:47 AM CDT (6/18)
Length of Visible Light 15h 13m
Length of Day
14h 16m
Waxing Gibbous, 71% of the Moon is Illuminated
Jun 18
Waxing Gibbous
Jun 23
Full
Jun 29
Last Quarter
Jul 8
New
Jul 15
First Quarter

Hourly Weather History & Observations

Time (CDT) Temp. Heat Index Dew Point Humidity Pressure Visibility Wind Dir Wind Speed Gust Speed Precip Events Conditions
12:53 AM 80.1 °F 83.8 °F 72.0 °F 76% 29.90 in 10.0 mi SW 8.1 mph - N/A   Scattered Clouds
1:02 AM 80.6 °F 84.6 °F 71.6 °F 74% 29.93 in 10.0 mi SW 5.8 mph - N/A Thunderstorm Scattered Clouds
1:53 AM 80.1 °F 83.8 °F 72.0 °F 76% 29.89 in 10.0 mi SSW 9.2 mph - N/A Thunderstorm Thunderstorm
2:22 AM 80.6 °F 84.6 °F 71.6 °F 74% 29.92 in 10.0 mi SW 6.9 mph - N/A   Partly Cloudy
2:32 AM 80.6 °F 84.6 °F 71.6 °F 74% 29.93 in 10.0 mi WSW 8.1 mph - N/A Thunderstorm Partly Cloudy
2:53 AM 80.1 °F 83.8 °F 72.0 °F 76% 29.88 in 10.0 mi SW 12.7 mph - N/A   Scattered Clouds
3:45 AM 77.0 °F - 73.4 °F 89% 29.92 in 6.0 mi WSW 12.7 mph - 0.04 in Rain Rain
3:53 AM 75.9 °F - 73.0 °F 91% 29.89 in 6.0 mi SW 16.1 mph 20.7 mph 0.05 in Rain Light Rain
4:39 AM 71.6 °F - 68.0 °F 88% 29.92 in 10.0 mi South 4.6 mph - 0.01 in Thunderstorm Scattered Clouds
4:53 AM 72.0 °F - 69.1 °F 91% 29.90 in 10.0 mi South 3.5 mph - 0.01 in Thunderstorm Partly Cloudy
5:03 AM 71.6 °F - 69.8 °F 94% 29.93 in 10.0 mi SSW 3.5 mph - N/A   Scattered Clouds
5:16 AM 73.4 °F - 69.8 °F 88% 29.92 in 10.0 mi South 4.6 mph - N/A Thunderstorm Thunderstorm
5:53 AM 75.0 °F - 72.0 °F 90% 29.93 in 10.0 mi WSW 4.6 mph - N/A Thunderstorm Overcast
6:08 AM 75.2 °F - 73.4 °F 94% 29.96 in 10.0 mi WSW 8.1 mph - N/A Thunderstorm Thunderstorm
6:20 AM 75.2 °F - 73.4 °F 94% 29.97 in 10.0 mi West 8.1 mph - 0.00 in Rain , Thunderstorm Light Thunderstorms and Rain
6:32 AM 75.2 °F - 71.6 °F 89% 29.97 in 10.0 mi WNW 10.4 mph 20.7 mph 0.00 in Thunderstorm Mostly Cloudy
6:53 AM 73.0 °F - 69.1 °F 87% 29.96 in 7.0 mi West 12.7 mph 20.7 mph 0.02 in Rain Light Rain
7:14 AM 71.6 °F - 69.8 °F 94% 30.00 in 2.5 mi West 19.6 mph 27.6 mph 0.11 in Rain , Thunderstorm Rain
7:24 AM 73.4 °F - 69.8 °F 88% 29.99 in 2.0 mi WSW 5.8 mph 20.7 mph 0.18 in Rain Heavy Rain
7:35 AM 73.4 °F - 69.8 °F 88% 29.98 in 7.0 mi West 3.5 mph - 0.19 in Rain Light Rain
7:53 AM 73.0 °F - 69.1 °F 87% 29.95 in 7.0 mi WSW 4.6 mph - 0.22 in Rain Light Rain
8:53 AM 73.0 °F - 69.1 °F 87% 29.95 in 10.0 mi WSW 10.4 mph - 0.01 in Rain Light Rain
9:53 AM 77.0 °F - 71.1 °F 82% 29.94 in 10.0 mi West 8.1 mph - 0.00 in   Clear
10:53 AM 78.1 °F - 69.1 °F 74% 29.96 in 10.0 mi WNW 9.2 mph - N/A   Partly Cloudy
11:53 AM 82.9 °F 87.0 °F 70.0 °F 65% 29.97 in 10.0 mi West 8.1 mph - N/A   Clear
12:37 PM 82.4 °F 86.3 °F 69.8 °F 66% 30.00 in 10.0 mi WNW 12.7 mph - N/A Thunderstorm Scattered Clouds
12:38 PM 82.4 °F 86.3 °F 69.8 °F 66% 30.00 in 10.0 mi WNW 11.5 mph - N/A Thunderstorm Thunderstorm
12:45 PM 84.2 °F 88.4 °F 69.8 °F 62% 30.00 in 10.0 mi West 10.4 mph - N/A   Scattered Clouds
12:53 PM 84.0 °F 88.4 °F 70.0 °F 63% 29.98 in 10.0 mi West 13.8 mph - N/A   Mostly Cloudy
1:53 PM 84.0 °F 88.4 °F 70.0 °F 63% 29.96 in 10.0 mi WSW 6.9 mph - N/A   Scattered Clouds
2:53 PM 82.9 °F 88.0 °F 72.0 °F 69% 29.93 in 10.0 mi WSW 10.4 mph - N/A   Overcast
3:00 PM 82.4 °F 87.2 °F 71.6 °F 70% 29.95 in 10.0 mi WSW 8.1 mph - N/A   Mostly Cloudy
3:09 PM 84.2 °F 89.6 °F 71.6 °F 66% 29.95 in 10.0 mi WSW 8.1 mph - N/A   Mostly Cloudy
3:40 PM 84.2 °F 88.4 °F 69.8 °F 62% 29.94 in 10.0 mi West 12.7 mph - N/A   Mostly Cloudy
3:53 PM 84.9 °F 89.4 °F 70.0 °F 61% 29.91 in 10.0 mi WNW 13.8 mph - N/A   Scattered Clouds
4:40 PM 86.0 °F 90.4 °F 69.8 °F 58% 29.93 in 10.0 mi West 10.4 mph - N/A Thunderstorm Clear
4:53 PM 84.9 °F 89.4 °F 70.0 °F 61% 29.91 in 10.0 mi West 9.2 mph - N/A Thunderstorm Partly Cloudy
5:37 PM 84.2 °F 88.4 °F 69.8 °F 62% 29.93 in 10.0 mi WNW 6.9 mph - N/A   Scattered Clouds
5:53 PM 84.0 °F 88.4 °F 70.0 °F 63% 29.91 in 10.0 mi West 6.9 mph - N/A   Overcast
6:38 PM 82.4 °F 87.2 °F 71.6 °F 70% 29.94 in 10.0 mi NW 5.8 mph - N/A Thunderstorm Mostly Cloudy
6:53 PM 82.0 °F 86.7 °F 72.0 °F 71% 29.92 in 10.0 mi Variable 3.5 mph - N/A Thunderstorm Mostly Cloudy
7:39 PM 80.6 °F 84.6 °F 71.6 °F 74% 29.95 in 10.0 mi NW 6.9 mph - N/A   Overcast
7:46 PM 80.6 °F 84.6 °F 71.6 °F 74% 29.95 in 10.0 mi NW 5.8 mph - N/A Thunderstorm Overcast
7:53 PM 80.1 °F 83.8 °F 72.0 °F 76% 29.92 in 10.0 mi WNW 6.9 mph - N/A Thunderstorm Overcast
8:18 PM 78.8 °F - 71.6 °F 78% 29.95 in 10.0 mi WNW 5.8 mph - 0.00 in   Mostly Cloudy
8:53 PM 78.1 °F - 73.0 °F 84% 29.94 in 10.0 mi WNW 8.1 mph - 0.00 in Rain Light Rain
9:53 PM 75.9 °F - 73.0 °F 91% 29.95 in 8.0 mi WSW 4.6 mph - 0.07 in Rain Light Rain
10:53 PM 75.0 °F - 73.0 °F 94% 29.94 in 10.0 mi Calm Calm - 0.02 in   Scattered Clouds
11:20 PM 73.4 °F - 71.6 °F 94% 29.97 in 10.0 mi SE 5.8 mph - 0.00 in   Scattered Clouds
11:53 PM 73.0 °F - 71.1 °F 93% 29.97 in 10.0 mi SW 4.6 mph - 0.00 in   Mostly Cloudy